Location: Unspecified
(47.9110°N, 14.3980°E)
Time: 08:21:39
(UTC+00:00)

Cosmos 2100 Rocket - Pass Details

Date: 06 August 2020
Orbit: 957 x 1000 km, 82.9° (Epoch: 26 September)

Event Time Altitude Azimuth Distance (km) Brightness Sun altitude
Exits shadow 21:13:44 38° 143° (SE) 1,419 4.3 -20.8°
Maximum altitude 21:15:42 53° 92° (E) 1,166 4.2 -21.0°
Drops below altitude 10° 21:21:40 10° 17° (NNE) 2,699 6.9 -21.4°
Sets 21:24:13 0° 13° (NNE) 3,650 7.8 -21.6°
